| time (UTC) | temp C | wind direction | speed KPH | gust KPH | rain 1hr cm | rain 24hr cm | rain mn cm | humidity % | barometer mb |
| 20260905143904 | 24 | 0.0 | 0.0 | 0.00 | 0.00 | 0.00 | 42 | 1025.2 | |
| 20260905142905 | 24 | 0.0 | 0.0 | 0.00 | 0.00 | 0.00 | 41 | 1025.1 | |
| 20260905141905 | 24 | 0.0 | 0.0 | 0.00 | 0.00 | 0.00 | 41 | 1025.2 | |
| 20260905140904 | 23 | 0.0 | 0.0 | 0.00 | 0.00 | 0.00 | 44 | 1025.2 | |
| 20260905135905 | 24 | 0.0 | 0.0 | 0.00 | 0.00 | 0.00 | 41 | 1025.1 | |
| 20260905134911 | 24 | 0.0 | 0.0 | 0.00 | 0.00 | 0.00 | 40 | 1025.1 | |
| 20260905131906 | 25 | 0.0 | 0.0 | 0.00 | 0.00 | 0.00 | 41 | 1024.8 | |
| 20260905130905 | 23 | 0.0 | 0.0 | 0.00 | 0.00 | 0.00 | 44 | 1025.0 | |
| 20260905125906 | 22 | 0.0 | 0.0 | 0.00 | 0.00 | 0.00 | 46 | 1025.1 | |
| 20260905124905 | 22 | 0.0 | 0.0 | 0.00 | 0.00 | 0.00 | 47 | 1025.1 | |
| 20260905123904 | 22 | 0.0 | 0.0 | 0.00 | 0.00 | 0.00 | 47 | 1025.0 | |
| 20260905122905 | 22 | 0.0 | 0.0 | 0.00 | 0.00 | 0.00 | 47 | 1024.9 | |
| 20260905121906 | 22 | 0.0 | 0.0 | 0.00 | 0.00 | 0.00 | 46 | 1024.8 | |
| 20260905120906 | 22 | 0.0 | 0.0 | 0.00 | 0.00 | 0.00 | 47 | 1024.8 | |
| 20260905115905 | 24 | 0.0 | 0.0 | 0.00 | 0.00 | 0.00 | 45 | 1024.4 | |
| 20260905114905 | 23 | 0.0 | 0.0 | 0.00 | 0.00 | 0.00 | 47 | 1024.5 | |
| 20260905113905 | 22 | 0.0 | 0.0 | 0.00 | 0.00 | 0.00 | 51 | 1024.7 | |
| 20260905112907 | 22 | 0.0 | 0.0 | 0.00 | 0.00 | 0.00 | 53 | 1024.9 | |
| 20260905111905 | 20 | 0.0 | 0.0 | 0.00 | 0.00 | 0.00 | 57 | 1025.0 | |
| 20260905110904 | 20 | 0.0 | 0.0 | 0.00 | 0.00 | 0.00 | 57 | 1024.9 | |
| 20260905105909 | 20 | 0.0 | 0.0 | 0.00 | 0.00 | 0.00 | 60 | 1025.1 | |
| 20260905103905 | 20 | 0.0 | 0.0 | 0.00 | 0.00 | 0.00 | 60 | 1025.0 | |
| 20260905102904 | 20 | 0.0 | 0.0 | 0.00 | 0.00 | 0.00 | 61 | 1024.8 | |
| 20260905101905 | 20 | 0.0 | 0.0 | 0.00 | 0.00 | 0.00 | 62 | 1024.9 | |
| 20260905100906 | 19 | 0.0 | 0.0 | 0.00 | 0.00 | 0.00 | 65 | 1024.8 | |
| 20260905095911 | 19 | 0.0 | 0.0 | 0.00 | 0.00 | 0.00 | 65 | 1025.1 | |
| 20260905094909 | 19 | 0.0 | 0.0 | 0.00 | 0.00 | 0.00 | 67 | 1024.9 | |
| 20260905092905 | 18 | 0.0 | 0.0 | 0.00 | 0.00 | 0.00 | 75 | 1024.9 | |
| 20260905091904 | 18 | 0.0 | 0.0 | 0.00 | 0.00 | 0.00 | 75 | 1024.8 | |
| 20260905090904 | 18 | 0.0 | 0.0 | 0.00 | 0.00 | 0.00 | 77 | 1024.8 | |
| 20260905085909 | 18 | 0.0 | 0.0 | 0.00 | 0.00 | 0.00 | 82 | 1024.8 | |
| 20260905083904 | 17 | 0.0 | 0.0 | 0.00 | 0.00 | 0.00 | 86 | 1024.6 | |
| 20260905082905 | 17 | 0.0 | 0.0 | 0.00 | 0.00 | 0.00 | 88 | 1024.6 | |
| 20260905081905 | 17 | 0.0 | 0.0 | 0.00 | 0.00 | 0.00 | 89 | 1024.5 | |
| 20260905080905 | 17 | 0.0 | 0.0 | 0.00 | 0.00 | 0.00 | 91 | 1024.4 | |
| 20260905075903 | 17 | 0.0 | 0.0 | 0.00 | 0.00 | 0.00 | 93 | 1024.3 | |
| 20260905074905 | 17 | 0.0 | 0.0 | 0.00 | 0.00 | 0.00 | 93 | 1024.1 | |
| 20260905073905 | 17 | 0.0 | 0.0 | 0.00 | 0.00 | 0.00 | 94 | 1024.1 | |
| 20260905072903 | 17 | 0.0 | 0.0 | 0.00 | 0.00 | 0.00 | 94 | 1023.9 | |
| 20260905071906 | 17 | 0.0 | 0.0 | 0.00 | 0.00 | 0.00 | 93 | 1023.8 | |
| 20260905070906 | 17 | 0.0 | 0.0 | 0.00 | 0.00 | 0.00 | 91 | 1023.9 | |
| 20260905065904 | 17 | 0.0 | 0.0 | 0.00 | 0.00 | 0.00 | 90 | 1023.8 | |
| 20260905064904 | 16 | 0.0 | 0.0 | 0.00 | 0.00 | 0.00 | 86 | 1023.8 | |
| 20260905063904 | 16 | 0.0 | 0.0 | 0.00 | 0.00 | 0.00 | 85 | 1023.7 | |
| 20260905062904 | 16 | 0.0 | 0.0 | 0.00 | 0.00 | 0.00 | 84 | 1023.5 | |
| 20260905061904 | 16 | 0.0 | 0.0 | 0.00 | 0.00 | 0.00 | 82 | 1023.5 | |
| 20260905060904 | 16 | 0.0 | 0.0 | 0.00 | 0.00 | 0.00 | 82 | 1023.5 | |
| 20260905055904 | 16 | 0.0 | 0.0 | 0.00 | 0.00 | 0.00 | 82 | 1023.3 | |
| 20260905054904 | 16 | 0.0 | 0.0 | 0.00 | 0.00 | 0.00 | 81 | 1023.4 | |
| 20260905053909 | 16 | 0.0 | 0.0 | 0.00 | 0.00 | 0.00 | 81 | 1023.3 | |
| 20260905051909 | 16 | 0.0 | 0.0 | 0.00 | 0.00 | 0.00 | 80 | 1022.9 | |
| 20260905045904 | 16 | 0.0 | 0.0 | 0.00 | 0.00 | 0.00 | 80 | 1022.5 | |
| 20260905044904 | 16 | 0.0 | 0.0 | 0.00 | 0.00 | 0.00 | 81 | 1022.3 | |
| 20260905043909 | 16 | 0.0 | 0.0 | 0.00 | 0.00 | 0.00 | 80 | 1022.1 | |
| 20260905041907 | 16 | 0.0 | 0.0 | 0.00 | 0.00 | 0.00 | 81 | 1021.8 | |
| 20260905040911 | 16 | 0.0 | 0.0 | 0.00 | 0.00 | 0.00 | 81 | 1021.9 | |
| 20260905034906 | 17 | 0.0 | 0.0 | 0.00 | 0.00 | 0.00 | 81 | 1021.8 | |
| 20260905033907 | 17 | 0.0 | 0.0 | 0.00 | 0.00 | 0.00 | 81 | 1021.8 | |
| 20260905032910 | 17 | 0.0 | 0.0 | 0.00 | 0.00 | 0.00 | 82 | 1021.8 | |
| 20260905030905 | 17 | 0.0 | 0.0 | 0.00 | 0.00 | 0.00 | 83 | 1021.5 | |
| 20260905025904 | 17 | 0.0 | 0.0 | 0.00 | 0.00 | 0.00 | 82 | 1021.4 | |
| 20260905024906 | 17 | 0.0 | 0.0 | 0.00 | 0.00 | 0.00 | 83 | 1021.3 | |
| 20260905023905 | 17 | 0.0 | 0.0 | 0.00 | 0.00 | 0.00 | 83 | 1021.3 | |
| 20260905022904 | 17 | 0.0 | 0.0 | 0.00 | 0.00 | 0.00 | 83 | 1021.3 | |
| 20260905021909 | 17 | 0.0 | 0.0 | 0.00 | 0.00 | 0.00 | 83 | 1020.7 | |
| 20260905015906 | 17 | 0.0 | 0.0 | 0.00 | 0.00 | 0.00 | 83 | 1020.7 | |
| 20260905014905 | 17 | 0.0 | 0.0 | 0.00 | 0.00 | 0.00 | 83 | 1020.8 | |
| 20260905013905 | 17 | 0.0 | 0.0 | 0.00 | 0.00 | 0.00 | 83 | 1020.7 | |
| 20260905012909 | 18 | 0.0 | 0.0 | 0.00 | 0.00 | 0.00 | 84 | 1020.6 | |
| 20260905010906 | 18 | 0.0 | 0.0 | 0.00 | 0.00 | 0.00 | 84 | 1020.6 | |
| 20260905005905 | 18 | 0.0 | 0.0 | 0.00 | 0.00 | 0.00 | 84 | 1020.6 | |
| 20260905004909 | 18 | 0.0 | 0.0 | 0.00 | 0.00 | 0.00 | 84 | 1020.4 | |
| 20260905002905 | 18 | 0.0 | 0.0 | 0.00 | 0.00 | 0.00 | 83 | 1020.5 | |
| 20260905001905 | 18 | 0.0 | 0.0 | 0.00 | 0.00 | 0.00 | 83 | 1020.6 | |
| 20260905000904 | 18 | 0.0 | 0.0 | 0.00 | 0.00 | 0.00 | 83 | 1020.6 | |
| 20260904235908 | 18 | 0.0 | 0.0 | 0.00 | 0.00 | 0.00 | 82 | 1020.3 | |
| 20260904233904 | 18 | 0.0 | 0.0 | 0.00 | 0.00 | 0.00 | 81 | 1019.7 | |
| 20260904232906 | 18 | 0.0 | 0.0 | 0.00 | 0.00 | 0.00 | 81 | 1019.9 | |
| 20260904231906 | 18 | 0.0 | 0.0 | 0.00 | 0.00 | 0.00 | 80 | 1019.8 | |
| 20260904230904 | 18 | 0.0 | 0.0 | 0.00 | 0.00 | 0.00 | 80 | 1020.0 | |
| 20260904225908 | 18 | 0.0 | 0.0 | 0.00 | 0.00 | 0.00 | 80 | 1019.9 | |
| 20260904223905 | 18 | 0.0 | 0.0 | 0.00 | 0.00 | 0.00 | 79 | 1020.1 | |
| 20260904222909 | 18 | 0.0 | 0.0 | 0.00 | 0.00 | 0.00 | 79 | 1020.1 | |
| 20260904220905 | 18 | 0.0 | 0.0 | 0.00 | 0.00 | 0.00 | 79 | 1019.8 | |
| 20260904215906 | 19 | 0.0 | 0.0 | 0.00 | 0.00 | 0.00 | 79 | 1019.6 | |
| 20260904214906 | 18 | 0.0 | 0.0 | 0.00 | 0.00 | 0.00 | 78 | 1019.6 | |
| 20260904213904 | 19 | 0.0 | 0.0 | 0.00 | 0.00 | 0.00 | 78 | 1019.5 | |
| 20260904212909 | 19 | 0.0 | 0.0 | 0.00 | 0.00 | 0.00 | 78 | 1019.6 | |
| 20260904210904 | 19 | 0.0 | 0.0 | 0.00 | 0.00 | 0.00 | 77 | 1019.6 | |
| 20260904205905 | 19 | 0.0 | 0.0 | 0.00 | 0.00 | 0.00 | 77 | 1019.7 | |
| 20260904204905 | 20 | 0.0 | 0.0 | 0.00 | 0.00 | 0.00 | 75 | 1019.7 | |
| 20260904203904 | 20 | 0.0 | 0.0 | 0.00 | 0.00 | 0.00 | 75 | 1019.8 | |
| 20260904202904 | 20 | 0.0 | 0.0 | 0.00 | 0.00 | 0.00 | 76 | 1019.8 | |
| 20260904201905 | 20 | 0.0 | 0.0 | 0.00 | 0.00 | 0.00 | 76 | 1019.3 | |
| 20260904200906 | 20 | 0.0 | 0.0 | 0.00 | 0.00 | 0.00 | 75 | 1019.0 | |
| 20260904195904 | 20 | 0.0 | 0.0 | 0.00 | 0.00 | 0.00 | 74 | 1018.7 | |
| 20260904194905 | 20 | 0.0 | 0.0 | 0.00 | 0.00 | 0.00 | 75 | 1018.3 | |
| 20260904193904 | 20 | 0.0 | 0.0 | 0.00 | 0.00 | 0.00 | 74 | 1018.6 | |
| 20260904192905 | 20 | 0.0 | 0.0 | 0.00 | 0.00 | 0.00 | 77 | 1018.4 | |
| 20260904191910 | 20 | 0.0 | 0.0 | 0.00 | 0.00 | 0.00 | 84 | 1018.2 | |
| 20260904185904 | 20 | 0.0 | 0.0 | 0.00 | 0.00 | 0.00 | 81 | 1017.3 | |
| 20260904184910 | 21 | 0.0 | 0.0 | 0.00 | 0.00 | 0.00 | 78 | 1016.8 | |
| 20260904180905 | 25 | 0.0 | 0.0 | 0.00 | 0.00 | 0.00 | 56 | 1014.6 | |
| 20260904175904 | 25 | 0.0 | 0.0 | 0.00 | 0.00 | 0.00 | 54 | 1014.4 | |
| 20260904174904 | 25 | 0.0 | 0.0 | 0.00 | 0.00 | 0.00 | 54 | 1014.1 | |
| 20260904173908 | 25 | 0.0 | 0.0 | 0.00 | 0.00 | 0.00 | 54 | 1014.2 | |
| 20260904171905 | 25 | 0.0 | 0.0 | 0.00 | 0.00 | 0.00 | 53 | 1014.1 | |
| 20260904170904 | 26 | 0.0 | 0.0 | 0.00 | 0.00 | 0.00 | 53 | 1014.0 | |
| 20260904165909 | 26 | 0.0 | 0.0 | 0.00 | 0.00 | 0.00 | 52 | 1013.9 | |
| 20260904163905 | 26 | 0.0 | 0.0 | 0.00 | 0.00 | 0.00 | 52 | 1013.9 | |
| 20260904162904 | 27 | 0.0 | 0.0 | 0.00 | 0.00 | 0.00 | 52 | 1013.9 | |
| 20260904161909 | 27 | 0.0 | 0.0 | 0.00 | 0.00 | 0.00 | 51 | 1013.9 | |
| 20260904155904 | 28 | 0.0 | 0.0 | 0.00 | 0.00 | 0.00 | 50 | 1013.9 | |
| 20260904154905 | 28 | 0.0 | 0.0 | 0.00 | 0.00 | 0.00 | 51 | 1013.9 | |
| 20260904153906 | 27 | 0.0 | 0.0 | 0.00 | 0.00 | 0.00 | 52 | 1014.0 | |
| 20260904152906 | 28 | 0.0 | 0.0 | 0.00 | 0.00 | 0.00 | 50 | 1014.0 | |
| 20260904151904 | 28 | 0.0 | 0.0 | 0.00 | 0.00 | 0.00 | 50 | 1013.9 | |
| 20260904150905 | 27 | 0.0 | 0.0 | 0.00 | 0.00 | 0.00 | 50 | 1014.2 | |
| 20260904145905 | 27 | 0.0 | 0.0 | 0.00 | 0.00 | 0.00 | 51 | 1014.1 | |
| 20260904144905 | 27 | 0.0 | 0.0 | 0.00 | 0.00 | 0.00 | 51 | 1014.2 |